Weather Service Report


696 
ASUS46 KPQR 300710
RWROR 

OREGON REGIONAL WEATHER ROUNDUP
NATIONAL WEATHER SERVICE PORTLAND OR
1200 AM PDT SAT MAY 30 2015

NOTE: "FAIR" INDICATES FEW OR NO CLOUDS BELOW 12,000 FEET WITH
NO SIGNIFICANT WEATHER AND/OR OBSTRUCTIONS TO VISIBILITY.

ORZ001>013-300800-
NORTHWEST OREGON

  
CITY           SKY/WX    TMP DP  RH WIND       PRES   REMARKS
ASTORIA        CLOUDY    53  47  79 W6        30.01S                  
NEWPORT        CLOUDY    52  48  87 N6        30.04R                  
PORTLAND       MOCLDY    60  52  74 NW8       29.94S                  
VANCOUVER WA   MOCLDY    60  49  66 N5        29.93S                  
SCAPPOOSE      PTCLDY    58  49  72 N8        29.93S                  
HILLSBORO      MOCLDY    59  49  69 NW6       29.93S                  
AURORA         MOCLDY    60  54  80 SW3       29.93F                  
MCMINNVILLE    MOCLDY    55  50  83 SW7       29.94F                  
SALEM          MOCLDY    60  47  61 W8        29.92F                  
CORVALLIS      MOCLDY    54  48  82 NW14G22   29.95S                  
EUGENE         MOCLDY    60  53  77 SW8       29.95R                  
$$

ORZ021-028-300800-
SOUTHWEST OREGON

  
CITY           SKY/WX    TMP DP  RH WIND       PRES   REMARKS
NORTH BEND     CLOUDY    54  52  94 N7        30.03S                  
BROOKINGS      CLOUDY    52  52 100 CALM      30.01S FOG              
ROSEBURG       CLOUDY    66  52  60 N6        29.94S                  
SEXTON SUMMIT  PTCLDY    59  50  72 N7        30.01S                  
MEDFORD        MOCLDY    70  55  59 NE7       29.90S                  
$$

ORZ014>016-041-300800-
COLUMBIA GORGE

  
CITY           SKY/WX    TMP DP  RH WIND       PRES   REMARKS
TROUTDALE      MOCLDY    62  51  67 CALM      29.92S                  
THE DALLES     PTCLDY    73  54  51 NW12      29.84S                  
$$

ORZ029>031-041-044-049-050-061>064-502-503-505>511-300800-
EASTERN OREGON

  
CITY           SKY/WX    TMP DP  RH WIND       PRES   REMARKS
REDMOND        CLOUDY    58  53  84 CALM      29.97S                  
BEND           CLOUDY    57  54  88 CALM      29.99S                  
PRINEVILLE     CLOUDY    59  54  82 CALM      29.98R                  
KLAMATH FALLS  PTCLDY    59  53  80 SE3       30.01S                  
LAKEVIEW       MOCLDY    57  39  51 SW3       30.07R                  
HERMISTON      CLOUDY    70  55  59 SE6       29.83F                  
PENDLETON      CLOUDY    67  53  61 S6        29.87F                  
JOHN DAY       CLOUDY    59  55  87 E9        30.02F                  
MEACHAM        CLOUDY    56  54  93 CALM      30.01F                  
LA GRANDE      CLOUDY    61  48  63 S7        30.02F                  
BAKER CITY     LGT RAIN  62  52  69 W8G21     30.06R                  
BURNS          MOCLDY    59  47  64 VRB5      30.01S                  
ROME             N/A     68  40  35 SW8       29.96R                  
ONTARIO        CLOUDY    70  49  47 SW8       29.96R                  
$$

Return to Home page


Western Regional Climate Center, wrcc@dri.edu